Flag for Norway Weather past 2 weeks in Førde, Norway

Now
45 °F

Sprinkles. Partly sunny.


Feels Like: 39 °F
Forecast: 50 / 53 °F
Wind: 12 mph from South

Location: Forde / Bringeland

Current Time: Oct 25, 2014 at 1:39:32 PM

Latest Report: Oct 25, 2014 at 12:50 PM


Visibility: N/A

Pressure: 29.59 "Hg

Humidity: 93%

Dew point: 43 °F

Location of FørdeLocation

Historic Weather in Førde — Graph

°F

Førde temperature yesterday

Maximum temperature yesterday: 48 °F (at 5:50 AM)
Minimum temperature yesterday: 43 °F (at 9:20 PM)
Average temperature yesterday: 46 °F

Past Weeks' High & Low Weather Summary

 TemperatureHumidityPressure
High52 °F (Oct 10, 1:20 PM)100% (Oct 12, 7:50 PM)29.95 "Hg (Oct 12, 7:50 PM)
Low27 °F (Oct 17, 11:20 AM)26% (Oct 17, 11:20 AM)29.21 "Hg (Oct 19, 6:50 PM)
Average45 °F84%29.69 "Hg
* Reported Oct 10 12:20 PM — Oct 25 12:20 PM, Førde, Weather by CustomWeather, © 2014

Note: Actual official high and low records may vary slightly from our data, if they occured in-between our weather recording intervals... More about our weather records

Advertising

Førde weather history for previous 24 hours

 ConditionsComfort  
Time TempWeatherWind HumidityBarometerVisibility
12:20 PM
Oct 25
45 °FSprinkles. Broken clouds.13 mph87%29.59 "HgN/A
11:50 AM45 °FSprinkles. Broken clouds.15 mph87%29.56 "HgN/A
11:20 AM45 °FSprinkles. Broken clouds.13 mph87%29.59 "HgN/A
10:50 AM45 °FSprinkles. Broken clouds.15 mph87%29.59 "HgN/A
10:20 AM45 °FSprinkles. Broken clouds.12 mph87%29.59 "HgN/A
9:50 AM45 °FScattered showers. Broken clouds.10 mph87%29.59 "HgN/A
9:20 AM45 °FSprinkles. Passing clouds.9 mph87%29.59 "HgN/A
8:50 AM43 °FSprinkles. Passing clouds.10 mph93%29.59 "HgN/A
7:50 AM43 °FSprinkles. Passing clouds.8 mph93%29.59 "HgN/A
10:50 PM
Oct 24
45 °FSprinkles. Partly cloudy.9 mph87%29.62 "HgN/A
10:20 PM43 °FPartly cloudy.5 mph93%29.62 "HgN/A
9:50 PM43 °FSprinkles. Partly cloudy.5 mph93%29.62 "HgN/A
9:20 PM43 °FSprinkles. Partly cloudy.7 mph93%29.62 "HgN/A
8:50 PM45 °FSprinkles. Partly cloudy.8 mph81%29.62 "HgN/A
8:20 PM45 °FScattered showers. Partly cloudy.7 mph87%29.62 "HgN/A
7:50 PM45 °FSprinkles. Partly cloudy.8 mph87%29.62 "HgN/A
7:20 PM45 °FScattered showers. Partly cloudy.8 mph81%29.62 "HgN/A
6:50 PM45 °FSprinkles. Broken clouds.7 mph87%29.62 "HgN/A
6:20 PM45 °FBroken clouds.2 mph87%29.62 "HgN/A
5:50 PM45 °FSprinkles. Broken clouds.7 mph87%29.65 "HgN/A
5:20 PM45 °FSprinkles. Broken clouds.9 mph87%29.62 "HgN/A
4:50 PM46 °FScattered showers. Broken clouds.1 mph76%29.62 "HgN/A
4:20 PM46 °FScattered showers. Broken clouds.12 mph76%29.65 "HgN/A
3:20 PM48 °FScattered showers. Broken clouds.8 mph82%29.65 "HgN/A
2:50 PM46 °FSprinkles. Broken clouds.17 mph76%29.65 "HgN/A
Weather by CustomWeather, © 2014

See weather overviewHow to use our weather pages